This demonstration page uses our WeatherBlox Daily Observations layout. Learn more.

41.55636, -103.73856

Hourly Observations for January 24, 2019

Temp ( °F °C ) Dew Point ( °F °C ) Humidity (%) Winds ( mph kmh ) Pressure ( in mb ) Visibility ( mi km ) Precip ( " mm )
12:45 am 00:45 Cloudy with Light Snow 29 -1.7 27 -2.8 92 92 WNW 6 9 30.18 1022 2 3.218688 0.001 0.001
12:53 am 00:53 Cloudy with Light Snow 29 -1.7 27 -2.8 92 92 WNW 6 9 30.09 1019 2.5 4.02336 0.01 0.254
1:12 am 01:12 Cloudy with Light Snow 28 -2 27 -3 93 93 WNW 8 13 30.18 1022 2 3.218688 0 0
1:19 am 01:19 Cloudy with Light Snow 29 -1.7 28 -2.2 96 96 NW 7 11 30.21 1023 1.75 2.816352 0.001 0.001
1:53 am 01:53 Cloudy with Light Snow 28 -2.2 28 -2.2 100 100 WNW 7 11 30.12 1020 1.5 2.414016 0.01 0.254
2:21 am 02:21 Cloudy with Light Snow 28 -2.2 28 -2.2 100 100 NW 6 9 30.21 1023 1 1.609344 0.02 0.508
2:30 am 02:30 Cloudy with Light Snow 28 -2 27 -3 93 93 NE 17 28 30.21 1023 0.75 1.207008 0 0
2:40 am 02:40 Cloudy with Light Snow 25 -3.9 24 -4.4 96 96 NE 15 24 30.27 1025 0.75 1.207008 0.04 1.016
2:53 am 02:53 Cloudy with Light Snow 25 -3.9 24 -4.4 96 96 NNE 13 20 30.15 1021 1 1.609344 0.04 1.016
3:00 am 03:00 Mostly Cloudy with Scattered Snow Showers 25 -4 23 -5 93 93 NNE 18 30 30.27 1025 1 1.609344 0 0
3:16 am 03:16 Windy with Snow Likely 23 -5 19 -7 86 86 NNE 20 31 30.3 1026 2 3.218688 0 0
3:26 am 03:26 Windy with Snow Likely 21 -6 19 -7 93 93 NNE 21 33 30.3 1026 1.75 2.816352 0 0
3:36 am 03:36 Windy with Snow Likely 21 -6 19 -7 93 93 NNE 21 33 30.3 1026 2 3.218688 0 0
3:48 am 03:48 Cloudy with Light Snow 21 -6 18 -8 86 86 NNE 18 30 30.3 1026 4 6.437376 0 0
3:53 am 03:53 Cloudy with Light Snow 21 -6.1 18 -7.8 88 88 NNE 16 26 30.18 1022 5 8.04672 0.01 0.254
4:19 am 04:19 Cloudy with Light Snow 21 -6.1 18 -7.8 88 88 N 13 20 30.36 1028 2 3.218688 0.001 0.001
4:53 am 04:53 Cloudy with Light Snow 21 -6.1 18 -7.8 88 88 N 12 19 30.24 1024 2 3.218688 0.01 0.254
5:06 am 05:06 Cloudy with Light Snow 21 -6 18 -8 86 86 N 13 20 30.39 1029 1.75 2.816352 0 0
5:29 am 05:29 Cloudy with Light Snow 20 -6.7 18 -7.8 92 92 N 5 7 30.39 1029 2 3.218688 0.001 0.001
5:37 am 05:37 Cloudy with Light Snow 20 -6.7 19 -7.2 96 96 NW 3 6 30.39 1029 3 4.828032 0.001 0.001
5:53 am 05:53 Cloudy 20 -6.7 18 -7.8 92 92 WNW 5 7 30.3 1026 9 14.484096 0.001 0.001
6:29 am 06:29 Cloudy with Light Snow 20 -6.7 19 -7.2 96 96 WNW 6 9 30.42 1030 2.5 4.02336 0.001 0.001
6:53 am 06:53 Cloudy with Light Snow 20 -6.7 19 -7.2 96 96 WNW 6 9 30.33 1027 2.5 4.02336 0.001 0.001
7:06 am 07:06 Cloudy with Light Snow 19 -7 19 -7 100 100 WNW 5 7 30.45 1031 4 6.437376 0 0
7:53 am 07:53 Partly Cloudy 19 -7.2 12 -11.1 74 74 NNW 13 20 30.36 1028 10 16.09344 0.001 0.001
8:53 am 08:53 Partly Cloudy 19 -7.2 10 -12.2 68 68 NW 13 20 30.36 1028 10 16.09344 0 0
9:53 am 09:53 Mostly Cloudy 21 -6.1 11 -11.7 65 65 NW 17 28 30.39 1029 10 16.09344 0 0
10:53 am 10:53 Sunny 22 -5.6 11 -11.7 63 63 NNW 15 24 30.36 1028 10 16.09344 0 0
11:53 am 11:53 Mostly Sunny 24 -4.4 13 -10.6 62 62 WNW 12 19 30.33 1027 10 16.09344 0 0
12:38 pm 12:38 Mostly Cloudy 25 -4 16 -9 69 69 W 13 20 30.39 1029 10 16.09344 0 0
12:53 pm 12:53 Mostly Cloudy 26 -3.3 16 -8.9 66 66 W 12 19 30.27 1025 10 16.09344 0 0
1:02 pm 13:02 Partly Cloudy 25 -4 16 -9 69 69 WSW 14 22 30.36 1028 10 16.09344 0 0
1:53 pm 13:53 Sunny 25 -3.9 15 -9.4 66 66 W 9 15 30.24 1024 10 16.09344 0 0
2:53 pm 14:53 Sunny 25 -3.9 14 -10 63 63 WSW 8 13 30.24 1024 10 16.09344 0 0
3:53 pm 15:53 Sunny 24 -4.4 13 -10.6 62 62 Calm 30.24 1024 10 16.09344 0 0
4:53 pm 16:53 Sunny 20 -6.7 12 -11.1 71 71 Calm 30.21 1023 10 16.09344 0 0
5:53 pm 17:53 Clear 14 -10 9 -12.8 80 80 NNE 5 7 30.24 1024 10 16.09344 0 0
6:53 pm 18:53 Clear 13 -10.6 9 -12.8 84 84 NE 5 7 30.24 1024 10 16.09344 0 0
7:53 pm 19:53 Clear 9 -12.8 7 -13.9 92 92 Calm 30.24 1024 10 16.09344 0 0
8:53 pm 20:53 Clear 7 -13.9 5 -15 91 91 Calm 30.24 1024 10 16.09344 0 0
9:53 pm 21:53 Clear 10 -12.2 8 -13.3 92 92 N 7 11 30.24 1024 10 16.09344 0 0
10:53 pm 22:53 Clear 8 -13.3 6 -14.4 92 92 WNW 12 19 30.27 1025 10 16.09344 0 0
11:53 pm 23:53 Clear 11 -11.7 8 -13.3 88 88 WNW 8 13 30.24 1024 10 16.09344 0 0

Powered by AerisWeather